Location: Unspecified
(43.4354°N, 0.0000°E)
Time: 06:42:35
(UTC+00:00)

Transit 2A - Pass Details

Date: 16 June 2019
Orbit: 600 x 959 km, 66.7° (Epoch: 13 October)

Event Time Altitude Azimuth Distance (km) Brightness Sun altitude
Rises 03:49:24 0° 263° (W) 3,633 - -5.1°
Exits shadow 03:49:26 - 263° (W) 3,623 9.0 -5.1°
Reaches altitude 10° 03:52:51 10° 281° (WNW) 2,692 8.5 -4.6°
Maximum altitude 03:57:07 18° 324° (NW) 2,126 8.3 -4.0°
Drops below altitude 10° 04:01:19 10° 7° (N) 2,639 9.5 -3.4°
Sets 04:04:41 0° 26° (NNE) 3,536 10.7 -2.9°
